Location: Newark
(48.5583°N, 3.1564°W)
Time: 04:45:27
(UTC+00:00)

Envisat - Visible Passes

Search period start: 21 October 2019 00:00
Search period end: 31 October 2019 00:00
Orbit: 764 x 766 km, 98.1° (Epoch: 20 October)

Date Brightness Start Highest point End Pass type
(mag) Time Alt. Az. Time Alt. Az. Time Alt. Az.
21 Oct 6.5 05:39:58 10° ENE 05:41:45 12° E 05:43:31 10° ESE visible
21 Oct 3.8 18:34:57 10° S 18:39:55 54° W 18:44:56 10° NNW visible
22 Oct 2.9 17:58:03 10° SSE 18:03:07 75° ENE 18:08:13 10° N visible
22 Oct 5.9 19:39:33 10° SW 19:42:43 16° W 19:45:53 10° NW visible
23 Oct 6.0 06:03:55 10° NE 06:07:37 20° E 06:11:17 10° SE visible
23 Oct 4.8 19:01:01 10° SSW 19:05:34 33° W 19:10:09 10° NNW visible
24 Oct 3.4 18:23:34 10° S 18:28:37 67° WSW 18:33:43 10° NNW visible
25 Oct 3.0 17:46:53 10° SSE 17:51:52 61° ENE 17:56:54 10° N visible
25 Oct 5.6 19:27:36 10° SW 19:31:19 20° W 19:35:03 10° NW visible
26 Oct 6.1 05:53:06 10° NE 05:56:12 16° E 05:59:18 10° SE visible
26 Oct 4.4 18:49:27 10° SSW 18:54:13 40° W 18:59:01 10° NNW visible
27 Oct 3.1 18:12:15 10° SSE 18:17:20 83° WSW 18:22:28 10° NNW visible
27 Oct 6.2 19:55:15 10° WSW 19:57:10 12° W 19:59:05 10° WNW visible
28 Oct 3.2 17:35:46 10° SE 17:40:39 50° ENE 17:45:34 10° N visible
28 Oct 5.3 19:15:48 10° SSW 19:19:56 25° W 19:24:06 10° NW visible
29 Oct 6.3 05:42:32 10° ENE 05:44:47 13° E 05:47:02 10° ESE visible
29 Oct 3.9 18:37:59 10° S 18:42:54 50° W 18:47:52 10° NNW visible
30 Oct 2.9 18:01:00 10° SSE 18:06:04 81° ENE 18:11:12 10° NNW visible
30 Oct 5.9 19:42:51 10° WSW 19:45:45 15° W 19:48:38 10° NW visible
